Year,Month,Day,Hour,Minute,Value (Times are PST for windgust in km/hr)
2019,02,03,00,06,1.60
2019,02,03,00,12,8.10
2019,02,03,00,13,3.20
2019,02,03,00,18,6.40
2019,02,03,00,34,1.60
2019,02,03,00,35,1.60
2019,02,03,00,36,8.10
2019,02,03,00,37,9.60
2019,02,03,00,40,12.90
2019,02,03,00,41,11.30
2019,02,03,00,42,4.80
2019,02,03,00,44,9.60
2019,02,03,00,45,12.90
2019,02,03,00,46,11.30
2019,02,03,00,57,9.60
2019,02,03,00,58,9.60
2019,02,03,00,59,9.60
2019,02,03,01,00,8.10
2019,02,03,01,11,8.10
2019,02,03,01,12,8.10
2019,02,03,01,53,1.60
2019,02,03,01,56,1.60
2019,02,03,02,02,8.10
2019,02,03,02,12,1.60
2019,02,03,02,44,1.60
2019,02,03,03,00,9.60
2019,02,03,03,03,4.80
2019,02,03,03,04,4.80
2019,02,03,03,13,4.80
2019,02,03,03,15,4.80
2019,02,03,03,19,8.10
2019,02,03,03,20,1.60
2019,02,03,03,21,6.40
2019,02,03,03,22,6.40
2019,02,03,03,23,9.60
2019,02,03,03,24,4.80
2019,02,03,03,28,11.30
2019,02,03,03,29,11.30
2019,02,03,03,31,14.50
2019,02,03,03,32,17.70
2019,02,03,03,33,16.10
2019,02,03,03,34,14.50
2019,02,03,03,35,9.60
2019,02,03,03,36,14.50
2019,02,03,03,37,16.10
2019,02,03,03,38,16.10
2019,02,03,03,39,20.90
2019,02,03,03,40,11.30
2019,02,03,03,41,11.30
2019,02,03,03,42,3.20
2019,02,03,03,43,14.50
2019,02,03,03,51,4.80
2019,02,03,03,52,4.80
2019,02,03,03,53,1.60
2019,02,03,05,20,8.10
2019,02,03,05,21,9.60
2019,02,03,05,22,8.10
2019,02,03,05,42,9.60
2019,02,03,05,43,11.30
2019,02,03,05,44,16.10
2019,02,03,05,45,30.60
2019,02,03,05,46,17.70
2019,02,03,05,47,25.70
2019,02,03,05,48,20.90
2019,02,03,05,49,16.10
2019,02,03,05,50,24.20
2019,02,03,05,51,27.40
2019,02,03,05,52,32.20
2019,02,03,05,53,25.70
2019,02,03,05,54,33.80
2019,02,03,05,55,29.00
2019,02,03,05,56,24.20
2019,02,03,05,57,38.60
2019,02,03,05,58,35.40
2019,02,03,05,59,32.20
2019,02,03,06,00,35.40
2019,02,03,06,01,33.80
2019,02,03,06,02,20.90
2019,02,03,06,03,24.20
2019,02,03,06,04,16.10
2019,02,03,06,05,16.10
2019,02,03,06,06,16.10
2019,02,03,06,07,16.10
2019,02,03,06,08,37.00
2019,02,03,06,09,9.60
2019,02,03,06,10,14.50
2019,02,03,06,11,9.60
2019,02,03,06,12,8.10
2019,02,03,06,13,6.40
2019,02,03,06,14,9.60
2019,02,03,06,15,14.50
2019,02,03,06,16,17.70
2019,02,03,06,17,19.30
2019,02,03,06,18,20.90
2019,02,03,06,19,19.30
2019,02,03,06,20,16.10
2019,02,03,06,21,16.10
2019,02,03,06,22,19.30
2019,02,03,06,23,12.90
2019,02,03,06,25,1.60
2019,02,03,06,27,16.10
2019,02,03,06,28,11.30
2019,02,03,06,29,14.50
2019,02,03,06,30,12.90
2019,02,03,06,31,9.60
2019,02,03,06,43,6.40
2019,02,03,06,44,1.60
2019,02,03,06,48,8.10
2019,02,03,06,49,6.40
2019,02,03,06,50,1.60
2019,02,03,06,51,9.60
2019,02,03,06,52,11.30
2019,02,03,06,53,8.10
2019,02,03,06,54,4.80
2019,02,03,06,55,4.80
2019,02,03,06,59,1.60
2019,02,03,07,00,8.10
2019,02,03,07,01,8.10
2019,02,03,07,04,6.40
2019,02,03,07,08,1.60
2019,02,03,07,09,8.10
2019,02,03,07,10,6.40
2019,02,03,07,13,6.40
2019,02,03,07,16,1.60
2019,02,03,07,22,9.60
2019,02,03,07,23,11.30
2019,02,03,07,24,9.60
2019,02,03,07,25,9.60
2019,02,03,08,06,8.10
2019,02,03,08,07,9.60
2019,02,03,08,08,16.10
2019,02,03,08,09,12.90
2019,02,03,08,10,12.90
2019,02,03,08,11,29.00
2019,02,03,08,12,16.10
2019,02,03,08,13,8.10
2019,02,03,08,14,8.10
2019,02,03,08,15,17.70
2019,02,03,08,16,24.20
2019,02,03,08,17,17.70
2019,02,03,08,18,11.30
2019,02,03,08,19,1.60
2019,02,03,08,20,19.30
2019,02,03,08,21,9.60
2019,02,03,08,22,16.10
2019,02,03,08,23,14.50
2019,02,03,08,24,8.10
2019,02,03,08,25,3.20
2019,02,03,08,26,11.30
2019,02,03,08,27,12.90
2019,02,03,08,28,8.10
2019,02,03,08,29,11.30
2019,02,03,08,30,9.60
2019,02,03,08,31,11.30
2019,02,03,08,40,9.60
2019,02,03,08,41,9.60
2019,02,03,08,42,9.60
2019,02,03,08,43,8.10
2019,02,03,08,44,12.90
2019,02,03,08,45,11.30
2019,02,03,08,46,17.70
2019,02,03,08,47,11.30
2019,02,03,08,48,9.60
2019,02,03,08,49,11.30
2019,02,03,08,50,9.60
2019,02,03,08,51,8.10
2019,02,03,08,53,11.30
2019,02,03,08,54,25.70
2019,02,03,08,55,14.50
2019,02,03,08,56,19.30
2019,02,03,08,57,49.90
2019,02,03,08,58,40.20
2019,02,03,08,59,29.00
2019,02,03,09,00,29.00
2019,02,03,09,01,70.80
2019,02,03,09,02,41.80
2019,02,03,09,03,37.00
2019,02,03,09,04,27.40
2019,02,03,09,05,25.70
2019,02,03,09,06,43.50
2019,02,03,09,07,35.40
2019,02,03,09,08,9.60
2019,02,03,09,09,33.80
2019,02,03,09,10,38.60
2019,02,03,09,11,46.70
2019,02,03,09,12,19.30
2019,02,03,09,13,14.50
2019,02,03,09,14,29.00
2019,02,03,09,15,17.70
2019,02,03,09,16,12.90
2019,02,03,09,17,19.30
2019,02,03,09,18,12.90
2019,02,03,09,19,22.50
2019,02,03,09,20,33.80
2019,02,03,09,21,29.00
2019,02,03,09,22,20.90
2019,02,03,09,23,27.40
2019,02,03,09,24,22.50
2019,02,03,09,25,22.50
2019,02,03,09,26,32.20
2019,02,03,09,27,20.90
2019,02,03,09,28,40.20
2019,02,03,09,29,25.70
2019,02,03,09,30,9.60
2019,02,03,09,31,46.70
2019,02,03,09,32,78.80
2019,02,03,09,33,56.30
2019,02,03,09,34,40.20
2019,02,03,09,35,48.30
2019,02,03,09,36,35.40
2019,02,03,09,37,25.70
2019,02,03,09,38,24.20
2019,02,03,09,39,32.20
2019,02,03,09,40,45.10
2019,02,03,09,41,33.80
2019,02,03,09,42,43.50
2019,02,03,09,43,38.60
2019,02,03,09,44,80.50
2019,02,03,09,45,40.20
2019,02,03,09,46,45.10
2019,02,03,09,47,70.80
2019,02,03,09,48,64.40
2019,02,03,09,49,56.30
2019,02,03,09,50,51.50
2019,02,03,09,51,29.00
2019,02,03,09,52,38.60
2019,02,03,09,53,69.20
2019,02,03,09,54,37.00
2019,02,03,09,55,48.30
2019,02,03,09,56,61.20
2019,02,03,09,57,72.40
2019,02,03,09,58,69.20
2019,02,03,09,59,35.40
2019,02,03,10,00,32.20
2019,02,03,10,01,48.30
2019,02,03,10,02,48.30
2019,02,03,10,03,41.80
2019,02,03,10,04,35.40
2019,02,03,10,05,25.70
2019,02,03,10,06,40.20
2019,02,03,10,07,17.70
2019,02,03,10,08,8.10
2019,02,03,10,09,8.10
2019,02,03,10,10,17.70
2019,02,03,10,11,51.50
2019,02,03,10,12,40.20
2019,02,03,10,13,17.70
2019,02,03,10,14,37.00
2019,02,03,10,15,35.40
2019,02,03,10,16,33.80
2019,02,03,10,17,45.10
2019,02,03,10,18,49.90
2019,02,03,10,19,91.70
2019,02,03,10,20,72.40
2019,02,03,10,21,72.40
2019,02,03,10,22,53.10
2019,02,03,10,23,64.40
2019,02,03,10,24,61.20
2019,02,03,10,25,46.70
2019,02,03,10,26,48.30
2019,02,03,10,27,51.50
2019,02,03,10,28,64.40
2019,02,03,10,29,45.10
2019,02,03,10,30,96.60
2019,02,03,10,31,54.70
2019,02,03,10,32,111.10
2019,02,03,10,33,82.10
2019,02,03,10,34,77.30
2019,02,03,10,35,32.20
2019,02,03,10,36,24.20
2019,02,03,10,37,33.80
2019,02,03,10,38,51.50
2019,02,03,10,39,48.30
2019,02,03,10,40,40.20
2019,02,03,10,41,20.90
2019,02,03,10,42,53.10
2019,02,03,10,43,49.90
2019,02,03,10,44,43.50
2019,02,03,10,45,27.40
2019,02,03,10,46,24.20
2019,02,03,10,47,16.10
2019,02,03,10,48,35.40
2019,02,03,10,49,16.10
2019,02,03,10,50,49.90
2019,02,03,10,51,14.50
2019,02,03,10,52,11.30
2019,02,03,10,53,37.00
2019,02,03,10,54,30.60
2019,02,03,10,55,9.60
2019,02,03,10,56,30.60
2019,02,03,10,57,30.60
2019,02,03,10,58,41.80
2019,02,03,10,59,17.70
2019,02,03,11,00,8.10
2019,02,03,11,01,62.70
2019,02,03,11,02,56.30
2019,02,03,11,03,30.60
2019,02,03,11,04,24.20
2019,02,03,11,05,30.60
2019,02,03,11,06,45.10
2019,02,03,11,07,69.20
2019,02,03,11,08,22.50
2019,02,03,11,09,17.70
2019,02,03,11,10,24.20
2019,02,03,11,11,17.70
2019,02,03,11,12,27.40
2019,02,03,11,13,27.40
2019,02,03,11,14,22.50
2019,02,03,11,15,57.90
2019,02,03,11,16,53.10
2019,02,03,11,17,38.60
2019,02,03,11,18,78.80
2019,02,03,11,19,51.50
2019,02,03,11,20,16.10
2019,02,03,11,21,38.60
2019,02,03,11,22,62.70
2019,02,03,11,23,41.80
2019,02,03,11,24,45.10
2019,02,03,11,25,41.80
2019,02,03,11,26,48.30
2019,02,03,11,27,38.60
2019,02,03,11,28,41.80
2019,02,03,11,29,3.20
2019,02,03,11,30,38.60
2019,02,03,11,31,48.30
2019,02,03,11,32,49.90
2019,02,03,11,33,27.40
2019,02,03,11,34,35.40
2019,02,03,11,35,41.80
2019,02,03,11,36,35.40
2019,02,03,11,37,57.90
2019,02,03,11,38,48.30
2019,02,03,11,39,24.20
2019,02,03,11,40,30.60
2019,02,03,11,41,25.70
2019,02,03,11,42,46.70
2019,02,03,11,43,46.70
2019,02,03,11,44,48.30
2019,02,03,11,45,61.20
2019,02,03,11,46,43.50
2019,02,03,11,47,43.50
2019,02,03,11,48,48.30
2019,02,03,11,49,51.50
2019,02,03,11,50,53.10
2019,02,03,11,51,41.80
2019,02,03,11,52,41.80
2019,02,03,11,53,46.70
2019,02,03,11,54,46.70
2019,02,03,11,55,57.90
2019,02,03,11,56,40.20
2019,02,03,11,57,61.20
2019,02,03,11,58,64.40
2019,02,03,11,59,62.70
2019,02,03,12,00,41.80
2019,02,03,12,01,37.00
2019,02,03,12,02,48.30
2019,02,03,12,03,45.10
2019,02,03,12,04,17.70
2019,02,03,12,05,12.90
2019,02,03,12,06,54.70
2019,02,03,12,07,25.70
2019,02,03,12,08,29.00
2019,02,03,12,09,33.80
2019,02,03,12,10,30.60
2019,02,03,12,11,51.50
2019,02,03,12,12,61.20
2019,02,03,12,13,29.00
2019,02,03,12,14,19.30
2019,02,03,12,15,37.00
2019,02,03,12,16,35.40
2019,02,03,12,17,29.00
2019,02,03,12,18,51.50
2019,02,03,12,19,24.20
2019,02,03,12,20,41.80
2019,02,03,12,21,59.50
2019,02,03,12,22,61.20
2019,02,03,12,23,49.90
2019,02,03,12,24,53.10
2019,02,03,12,25,49.90
2019,02,03,12,26,38.60
2019,02,03,12,27,19.30
2019,02,03,12,28,32.20
2019,02,03,12,29,64.40
2019,02,03,12,30,27.40
2019,02,03,12,31,69.20
2019,02,03,12,32,59.50
2019,02,03,12,33,35.40
2019,02,03,12,34,59.50
2019,02,03,12,35,46.70
2019,02,03,12,36,43.50
2019,02,03,12,37,67.60
2019,02,03,12,38,49.90
2019,02,03,12,39,41.80
2019,02,03,12,40,43.50
2019,02,03,12,41,67.60
2019,02,03,12,42,53.10
2019,02,03,12,43,35.40
2019,02,03,12,44,35.40
2019,02,03,12,45,35.40
2019,02,03,12,46,35.40
2019,02,03,12,47,40.20
2019,02,03,12,48,35.40
2019,02,03,12,49,37.00
2019,02,03,12,50,56.30
2019,02,03,12,51,27.40
2019,02,03,12,52,29.00
2019,02,03,12,53,48.30
2019,02,03,12,54,48.30
2019,02,03,12,55,32.20
2019,02,03,12,56,54.70
2019,02,03,12,57,33.80
2019,02,03,12,58,29.00
2019,02,03,12,59,37.00
2019,02,03,13,00,56.30
2019,02,03,13,01,30.60
2019,02,03,13,02,38.60
2019,02,03,13,03,38.60
2019,02,03,13,04,45.10
2019,02,03,13,05,64.40
2019,02,03,13,06,49.90
2019,02,03,13,07,32.20
2019,02,03,13,08,14.50
2019,02,03,13,09,22.50
2019,02,03,13,10,17.70
2019,02,03,13,11,4.80
2019,02,03,13,12,12.90
2019,02,03,13,13,16.10
2019,02,03,13,14,27.40
2019,02,03,13,15,37.00
2019,02,03,13,16,22.50
2019,02,03,13,17,20.90
2019,02,03,13,18,20.90
2019,02,03,13,19,35.40
2019,02,03,13,20,25.70
2019,02,03,13,21,20.90
2019,02,03,13,22,22.50
2019,02,03,13,23,19.30
2019,02,03,13,24,25.70
2019,02,03,13,25,43.50
2019,02,03,13,26,41.80
2019,02,03,13,27,35.40
2019,02,03,13,28,40.20
2019,02,03,13,29,32.20
2019,02,03,13,30,49.90
2019,02,03,13,31,41.80
2019,02,03,13,32,27.40
2019,02,03,13,33,14.50
2019,02,03,13,34,14.50
2019,02,03,13,35,20.90
2019,02,03,13,36,19.30
2019,02,03,13,37,22.50
2019,02,03,13,38,33.80
2019,02,03,13,39,17.70
2019,02,03,13,40,17.70
2019,02,03,13,41,22.50
2019,02,03,13,42,29.00
2019,02,03,13,43,12.90
2019,02,03,13,44,22.50
2019,02,03,13,45,25.70
2019,02,03,13,46,29.00
2019,02,03,13,47,14.50
2019,02,03,13,48,12.90
2019,02,03,13,49,32.20
2019,02,03,13,50,29.00
2019,02,03,13,51,25.70
2019,02,03,13,52,37.00
2019,02,03,13,53,25.70
2019,02,03,13,54,38.60
2019,02,03,13,55,24.20
2019,02,03,13,56,62.70
2019,02,03,13,57,66.00
2019,02,03,13,58,53.10
2019,02,03,13,59,41.80
2019,02,03,14,00,49.90
2019,02,03,14,01,29.00
2019,02,03,14,02,35.40
2019,02,03,14,03,40.20
2019,02,03,14,04,32.20
2019,02,03,14,05,35.40
2019,02,03,14,06,40.20
2019,02,03,14,07,35.40
2019,02,03,14,08,43.50
2019,02,03,14,09,32.20
2019,02,03,14,10,41.80
2019,02,03,14,11,30.60
2019,02,03,14,12,41.80
2019,02,03,14,13,25.70
2019,02,03,14,14,32.20
2019,02,03,14,15,20.90
2019,02,03,14,16,12.90
2019,02,03,14,17,29.00
2019,02,03,14,18,40.20
2019,02,03,14,19,24.20
2019,02,03,14,20,32.20
2019,02,03,14,21,32.20
2019,02,03,14,22,33.80
2019,02,03,14,23,46.70
2019,02,03,14,24,29.00
2019,02,03,14,25,11.30
2019,02,03,14,26,9.60
2019,02,03,14,27,11.30
2019,02,03,14,28,24.20
2019,02,03,14,29,29.00
2019,02,03,14,30,32.20
2019,02,03,14,31,33.80
2019,02,03,14,32,19.30
2019,02,03,14,33,17.70
2019,02,03,14,34,11.30
2019,02,03,14,35,14.50
2019,02,03,14,36,12.90
2019,02,03,14,37,12.90
2019,02,03,14,38,11.30
2019,02,03,14,39,9.60
2019,02,03,14,40,20.90
2019,02,03,14,41,20.90
2019,02,03,14,42,20.90
2019,02,03,14,43,22.50
2019,02,03,14,44,19.30
2019,02,03,14,45,9.60
2019,02,03,14,46,6.40
2019,02,03,14,47,11.30
2019,02,03,14,48,8.10
2019,02,03,14,49,1.60
2019,02,03,14,50,1.60
2019,02,03,14,53,9.60
2019,02,03,14,54,6.40
2019,02,03,14,55,9.60
2019,02,03,14,56,19.30
2019,02,03,14,57,22.50
2019,02,03,14,58,8.10
2019,02,03,14,59,6.40
2019,02,03,15,00,11.30
2019,02,03,15,01,12.90
2019,02,03,15,02,6.40
2019,02,03,15,03,12.90
2019,02,03,15,04,22.50
2019,02,03,15,05,12.90
2019,02,03,15,06,12.90
2019,02,03,15,07,12.90
2019,02,03,15,08,17.70
2019,02,03,15,09,16.10
2019,02,03,15,10,17.70
2019,02,03,15,11,24.20
2019,02,03,15,12,16.10
2019,02,03,15,13,14.50
2019,02,03,15,14,17.70
2019,02,03,15,15,37.00
2019,02,03,15,16,29.00
2019,02,03,15,17,22.50
2019,02,03,15,18,29.00
2019,02,03,15,19,19.30
2019,02,03,15,20,9.60
2019,02,03,15,21,1.60
2019,02,03,15,22,19.30
2019,02,03,15,23,35.40
2019,02,03,15,24,24.20
2019,02,03,15,25,19.30
2019,02,03,15,26,17.70
2019,02,03,15,27,12.90
2019,02,03,15,28,19.30
2019,02,03,15,29,17.70
2019,02,03,15,30,20.90
2019,02,03,15,31,12.90
2019,02,03,15,32,19.30
2019,02,03,15,33,11.30
2019,02,03,15,34,14.50
2019,02,03,15,35,14.50
2019,02,03,15,36,20.90
2019,02,03,15,37,22.50
2019,02,03,15,38,24.20
2019,02,03,15,39,4.80
2019,02,03,15,41,3.20
2019,02,03,15,42,8.10
2019,02,03,15,43,24.20
2019,02,03,15,44,25.70
2019,02,03,15,45,35.40
2019,02,03,15,46,33.80
2019,02,03,15,47,20.90
2019,02,03,15,48,20.90
2019,02,03,15,49,25.70
2019,02,03,15,50,22.50
2019,02,03,15,51,16.10
2019,02,03,15,52,19.30
2019,02,03,15,53,43.50
2019,02,03,15,54,24.20
2019,02,03,15,55,35.40
2019,02,03,15,56,53.10
2019,02,03,15,57,24.20
2019,02,03,15,58,19.30
2019,02,03,15,59,16.10
2019,02,03,16,00,19.30
2019,02,03,16,01,6.40
2019,02,03,16,02,12.90
2019,02,03,16,03,20.90
2019,02,03,16,04,11.30
2019,02,03,16,05,8.10
2019,02,03,16,06,6.40
2019,02,03,16,07,20.90
2019,02,03,16,08,14.50
2019,02,03,16,09,6.40
2019,02,03,16,10,9.60
2019,02,03,16,11,22.50
2019,02,03,16,12,22.50
2019,02,03,16,13,9.60
2019,02,03,16,14,24.20
2019,02,03,16,15,19.30
2019,02,03,16,16,20.90
2019,02,03,16,17,14.50
2019,02,03,16,18,14.50
2019,02,03,16,19,8.10
2019,02,03,16,20,11.30
2019,02,03,16,21,4.80
2019,02,03,16,22,17.70
2019,02,03,16,23,12.90
2019,02,03,16,24,6.40
2019,02,03,16,25,17.70
2019,02,03,16,26,22.50
2019,02,03,16,27,14.50
2019,02,03,16,28,14.50
2019,02,03,16,29,11.30
2019,02,03,16,30,9.60
2019,02,03,16,31,38.60
2019,02,03,16,32,17.70
2019,02,03,16,33,17.70
2019,02,03,16,34,11.30
2019,02,03,16,35,12.90
2019,02,03,16,36,17.70
2019,02,03,16,37,22.50
2019,02,03,16,38,16.10
2019,02,03,16,39,9.60
2019,02,03,16,40,9.60
2019,02,03,16,41,11.30
2019,02,03,16,42,37.00
2019,02,03,16,43,24.20
2019,02,03,16,44,25.70
2019,02,03,16,45,19.30
2019,02,03,16,46,32.20
2019,02,03,16,47,25.70
2019,02,03,16,48,11.30
2019,02,03,16,49,19.30
2019,02,03,16,50,14.50
2019,02,03,16,51,8.10
2019,02,03,16,52,12.90
2019,02,03,16,53,19.30
2019,02,03,16,54,20.90
2019,02,03,16,55,35.40
2019,02,03,16,56,19.30
2019,02,03,16,57,29.00
2019,02,03,16,58,30.60
2019,02,03,16,59,20.90
2019,02,03,17,00,62.70
2019,02,03,17,01,40.20
2019,02,03,17,02,22.50
2019,02,03,17,03,32.20
2019,02,03,17,04,27.40
2019,02,03,17,05,19.30
2019,02,03,17,06,19.30
2019,02,03,17,07,25.70
2019,02,03,17,08,25.70
2019,02,03,17,09,29.00
2019,02,03,17,10,25.70
2019,02,03,17,11,46.70
2019,02,03,17,12,14.50
2019,02,03,17,13,22.50
2019,02,03,17,14,27.40
2019,02,03,17,15,29.00
2019,02,03,17,16,35.40
2019,02,03,17,17,24.20
2019,02,03,17,18,29.00
2019,02,03,17,19,16.10
2019,02,03,17,20,27.40
2019,02,03,17,21,14.50
2019,02,03,17,22,8.10
2019,02,03,17,23,14.50
2019,02,03,17,24,25.70
2019,02,03,17,25,25.70
2019,02,03,17,26,24.20
2019,02,03,17,27,29.00
2019,02,03,17,28,33.80
2019,02,03,17,29,40.20
2019,02,03,17,30,22.50
2019,02,03,17,31,25.70
2019,02,03,17,32,32.20
2019,02,03,17,33,35.40
2019,02,03,17,34,24.20
2019,02,03,17,35,17.70
2019,02,03,17,36,24.20
2019,02,03,17,37,19.30
2019,02,03,17,38,16.10
2019,02,03,17,39,33.80
2019,02,03,17,40,48.30
2019,02,03,17,41,40.20
2019,02,03,17,42,35.40
2019,02,03,17,43,25.70
2019,02,03,17,44,51.50
2019,02,03,17,45,20.90
2019,02,03,17,46,16.10
2019,02,03,17,47,17.70
2019,02,03,17,48,32.20
2019,02,03,17,49,45.10
2019,02,03,17,50,24.20
2019,02,03,17,51,20.90
2019,02,03,17,52,32.20
2019,02,03,17,53,19.30
2019,02,03,17,54,24.20
2019,02,03,17,55,33.80
2019,02,03,17,56,29.00
2019,02,03,17,57,25.70
2019,02,03,17,58,25.70
2019,02,03,17,59,29.00
2019,02,03,18,00,30.60
2019,02,03,18,01,27.40
2019,02,03,18,02,24.20
2019,02,03,18,03,29.00
2019,02,03,18,04,25.70
2019,02,03,18,05,30.60
2019,02,03,18,06,1.60
2019,02,03,18,07,37.00
2019,02,03,18,08,19.30
2019,02,03,18,09,61.20
2019,02,03,18,10,30.60
2019,02,03,18,11,20.90
2019,02,03,18,12,24.20
2019,02,03,18,13,35.40
2019,02,03,18,14,17.70
2019,02,03,18,15,25.70
2019,02,03,18,16,17.70
2019,02,03,18,17,32.20
2019,02,03,18,18,24.20
2019,02,03,18,19,27.40
2019,02,03,18,20,19.30
2019,02,03,18,21,14.50
2019,02,03,18,22,12.90
2019,02,03,18,23,24.20
2019,02,03,18,24,22.50
2019,02,03,18,25,35.40
2019,02,03,18,26,43.50
2019,02,03,18,27,33.80
2019,02,03,18,28,29.00
2019,02,03,18,29,24.20
2019,02,03,18,30,40.20
2019,02,03,18,31,25.70
2019,02,03,18,32,17.70
2019,02,03,18,33,24.20
2019,02,03,18,34,37.00
2019,02,03,18,35,25.70
2019,02,03,18,36,51.50
2019,02,03,18,37,56.30
2019,02,03,18,38,25.70
2019,02,03,18,39,41.80
2019,02,03,18,40,66.00
2019,02,03,18,41,30.60
2019,02,03,18,42,24.20
2019,02,03,18,43,37.00
2019,02,03,18,44,35.40
2019,02,03,18,45,35.40
2019,02,03,18,46,54.70
2019,02,03,18,47,14.50
2019,02,03,18,48,33.80
2019,02,03,18,49,29.00
2019,02,03,18,50,43.50
2019,02,03,18,51,29.00
2019,02,03,18,52,29.00
2019,02,03,18,53,20.90
2019,02,03,18,54,25.70
2019,02,03,18,55,19.30
2019,02,03,18,56,20.90
2019,02,03,18,57,17.70
2019,02,03,18,58,37.00
2019,02,03,18,59,43.50
2019,02,03,19,00,53.10
2019,02,03,19,01,53.10
2019,02,03,19,02,48.30
2019,02,03,19,03,14.50
2019,02,03,19,04,16.10
2019,02,03,19,05,14.50
2019,02,03,19,06,22.50
2019,02,03,19,07,33.80
2019,02,03,19,08,19.30
2019,02,03,19,09,14.50
2019,02,03,19,10,45.10
2019,02,03,19,11,37.00
2019,02,03,19,12,32.20
2019,02,03,19,13,33.80
2019,02,03,19,14,37.00
2019,02,03,19,15,25.70
2019,02,03,19,16,22.50
2019,02,03,19,17,14.50
2019,02,03,19,18,29.00
2019,02,03,19,19,27.40
2019,02,03,19,20,14.50
2019,02,03,19,21,29.00
2019,02,03,19,22,19.30
2019,02,03,19,23,22.50
2019,02,03,19,24,14.50
2019,02,03,19,25,30.60
2019,02,03,19,26,27.40
2019,02,03,19,27,37.00
2019,02,03,19,28,24.20
2019,02,03,19,29,41.80
2019,02,03,19,30,37.00
2019,02,03,19,31,24.20
2019,02,03,19,32,27.40
2019,02,03,19,33,12.90
2019,02,03,19,34,35.40
2019,02,03,19,35,30.60
2019,02,03,19,36,25.70
2019,02,03,19,37,4.80
2019,02,03,19,38,22.50
2019,02,03,19,39,14.50
2019,02,03,19,40,22.50
2019,02,03,19,41,16.10
2019,02,03,19,42,30.60
2019,02,03,19,43,45.10
2019,02,03,19,44,51.50
2019,02,03,19,45,45.10
2019,02,03,19,46,45.10
2019,02,03,19,47,35.40
2019,02,03,19,48,37.00
2019,02,03,19,49,40.20
2019,02,03,19,50,51.50
2019,02,03,19,51,20.90
2019,02,03,19,52,19.30
2019,02,03,19,53,16.10
2019,02,03,19,54,61.20
2019,02,03,19,55,38.60
2019,02,03,19,56,49.90
2019,02,03,19,57,25.70
2019,02,03,19,58,53.10
2019,02,03,19,59,38.60
2019,02,03,20,00,24.20
2019,02,03,20,01,19.30
2019,02,03,20,02,37.00
2019,02,03,20,03,30.60
2019,02,03,20,04,24.20
2019,02,03,20,05,48.30
2019,02,03,20,06,45.10
2019,02,03,20,07,40.20
2019,02,03,20,08,20.90
2019,02,03,20,09,25.70
2019,02,03,20,10,35.40
2019,02,03,20,11,35.40
2019,02,03,20,12,48.30
2019,02,03,20,13,32.20
2019,02,03,20,14,57.90
2019,02,03,20,15,40.20
2019,02,03,20,16,20.90
2019,02,03,20,17,17.70
2019,02,03,20,18,27.40
2019,02,03,20,19,46.70
2019,02,03,20,20,38.60
2019,02,03,20,21,46.70
2019,02,03,20,22,27.40
2019,02,03,20,23,25.70
2019,02,03,20,24,41.80
2019,02,03,20,25,27.40
2019,02,03,20,26,29.00
2019,02,03,20,27,29.00
2019,02,03,20,28,22.50
2019,02,03,20,29,30.60
2019,02,03,20,30,49.90
2019,02,03,20,31,38.60
2019,02,03,20,32,43.50
2019,02,03,20,33,29.00
2019,02,03,20,34,37.00
2019,02,03,20,35,33.80
2019,02,03,20,36,27.40
2019,02,03,20,37,37.00
2019,02,03,20,38,72.40
2019,02,03,20,39,33.80
2019,02,03,20,40,33.80
2019,02,03,20,41,6.40
2019,02,03,20,42,24.20
2019,02,03,20,43,40.20
2019,02,03,20,44,22.50
2019,02,03,20,45,35.40
2019,02,03,20,46,45.10
2019,02,03,20,47,62.70
2019,02,03,20,48,17.70
2019,02,03,20,49,33.80
2019,02,03,20,50,25.70
2019,02,03,20,51,35.40
2019,02,03,20,52,43.50
2019,02,03,20,53,51.50
2019,02,03,20,54,48.30
2019,02,03,20,55,33.80
2019,02,03,20,56,32.20
2019,02,03,20,57,38.60
2019,02,03,20,58,24.20
2019,02,03,20,59,29.00
2019,02,03,21,00,25.70
2019,02,03,21,01,37.00
2019,02,03,21,02,53.10
2019,02,03,21,03,32.20
2019,02,03,21,04,6.40
2019,02,03,21,05,8.10
2019,02,03,21,06,27.40
2019,02,03,21,07,33.80
2019,02,03,21,08,33.80
2019,02,03,21,09,43.50
2019,02,03,21,10,53.10
2019,02,03,21,11,30.60
2019,02,03,21,12,77.30
2019,02,03,21,13,53.10
2019,02,03,21,14,14.50
2019,02,03,21,15,25.70
2019,02,03,21,16,29.00
2019,02,03,21,17,19.30
2019,02,03,21,18,27.40
2019,02,03,21,19,29.00
2019,02,03,21,20,24.20
2019,02,03,21,21,37.00
2019,02,03,21,22,22.50
2019,02,03,21,23,57.90
2019,02,03,21,24,29.00
2019,02,03,21,25,53.10
2019,02,03,21,26,33.80
2019,02,03,21,27,33.80
2019,02,03,21,28,33.80
2019,02,03,21,29,20.90
2019,02,03,21,30,48.30
2019,02,03,21,31,48.30
2019,02,03,21,32,25.70
2019,02,03,21,33,30.60
2019,02,03,21,34,53.10
2019,02,03,21,35,33.80
2019,02,03,21,36,29.00
2019,02,03,21,37,46.70
2019,02,03,21,38,25.70
2019,02,03,21,39,33.80
2019,02,03,21,40,51.50
2019,02,03,21,41,33.80
2019,02,03,21,42,19.30
2019,02,03,21,43,20.90
2019,02,03,21,44,19.30
2019,02,03,21,45,38.60
2019,02,03,21,46,22.50
2019,02,03,21,47,41.80
2019,02,03,21,48,25.70
2019,02,03,21,49,30.60
2019,02,03,21,50,49.90
2019,02,03,21,51,43.50
2019,02,03,21,52,49.90
2019,02,03,21,53,66.00
2019,02,03,21,54,45.10
2019,02,03,21,55,29.00
2019,02,03,21,56,12.90
2019,02,03,21,57,41.80
2019,02,03,21,58,40.20
2019,02,03,21,59,45.10
2019,02,03,22,00,20.90
2019,02,03,22,01,29.00
2019,02,03,22,02,37.00
2019,02,03,22,03,41.80
2019,02,03,22,04,48.30
2019,02,03,22,05,27.40
2019,02,03,22,06,20.90
2019,02,03,22,07,57.90
2019,02,03,22,08,30.60
2019,02,03,22,09,24.20
2019,02,03,22,10,24.20
2019,02,03,22,11,27.40
2019,02,03,22,12,32.20
2019,02,03,22,13,32.20
2019,02,03,22,14,32.20
2019,02,03,22,15,35.40
2019,02,03,22,16,25.70
2019,02,03,22,17,29.00
2019,02,03,22,18,20.90
2019,02,03,22,19,30.60
2019,02,03,22,20,17.70
2019,02,03,22,21,61.20
2019,02,03,22,22,17.70
2019,02,03,22,23,32.20
2019,02,03,22,24,40.20
2019,02,03,22,25,27.40
2019,02,03,22,26,27.40
2019,02,03,22,27,16.10
2019,02,03,22,28,22.50
2019,02,03,22,29,14.50
2019,02,03,22,30,27.40
2019,02,03,22,31,25.70
2019,02,03,22,32,24.20
2019,02,03,22,33,17.70
2019,02,03,22,34,59.50
2019,02,03,22,35,37.00
2019,02,03,22,36,32.20
2019,02,03,22,37,37.00
2019,02,03,22,38,49.90
2019,02,03,22,39,19.30
2019,02,03,22,40,37.00
2019,02,03,22,41,29.00
2019,02,03,22,42,30.60
2019,02,03,22,43,24.20
2019,02,03,22,44,20.90
2019,02,03,22,45,35.40
2019,02,03,22,46,24.20
2019,02,03,22,47,53.10
2019,02,03,22,48,59.50
2019,02,03,22,49,43.50
2019,02,03,22,50,51.50
2019,02,03,22,51,35.40
2019,02,03,22,52,37.00
2019,02,03,22,53,45.10
2019,02,03,22,54,25.70
2019,02,03,22,55,45.10
2019,02,03,22,56,29.00
2019,02,03,22,57,54.70
2019,02,03,22,58,33.80
2019,02,03,22,59,29.00
2019,02,03,23,00,53.10
2019,02,03,23,01,38.60
2019,02,03,23,02,24.20
2019,02,03,23,03,29.00
2019,02,03,23,04,29.00
2019,02,03,23,05,53.10
2019,02,03,23,06,70.80
2019,02,03,23,07,33.80
2019,02,03,23,08,20.90
2019,02,03,23,09,51.50
2019,02,03,23,10,40.20
2019,02,03,23,11,17.70
2019,02,03,23,12,48.30
2019,02,03,23,13,35.40
2019,02,03,23,14,43.50
2019,02,03,23,15,32.20
2019,02,03,23,16,29.00
2019,02,03,23,17,33.80
2019,02,03,23,18,29.00
2019,02,03,23,19,54.70
2019,02,03,23,20,51.50
2019,02,03,23,21,35.40
2019,02,03,23,22,62.70
2019,02,03,23,23,17.70
2019,02,03,23,24,30.60
2019,02,03,23,25,49.90
2019,02,03,23,26,41.80
2019,02,03,23,27,14.50
2019,02,03,23,28,33.80
2019,02,03,23,29,30.60
2019,02,03,23,30,33.80
2019,02,03,23,31,56.30
2019,02,03,23,32,27.40
2019,02,03,23,33,48.30
2019,02,03,23,34,24.20
2019,02,03,23,35,9.60